Location: Goettingen
(51.5300°N, 9.9433°E)
Time: 04:49:47
(UTC+01:00)

ISS - Pass Details

Date: 28 November 2021
Orbit: 417 x 423 km, 51.6° (Epoch: 29 November)

Event Time Altitude Azimuth Distance (km) Brightness Sun altitude
Rises 19:27:09 0° 280° (W) 2,381 1.3 -28.8°
Reaches altitude 10° 19:29:15 10° 279° (W) 1,514 0.0 -29.1°
Enters shadow 19:30:12 18° 277° (W) 1,132 -0.8 -29.2°
